Time,TemperatureF,DewpointF,PressureIn,WindDirection,WindDirectionDegrees,WindSpeedMPH,WindSpeedGustMPH,Humidity,HourlyPrecipIn,Conditions,Clouds,dailyrainin,SolarRadiationWatts/m^2,SoftwareType,DateUTC
2013-02-19 00:11:00,70.5,-99.9,30.05,ENE,78,0.0,3.0,0,0.00,,,0.00,0,weatherlink.com 1.10,2013-02-19 04:11:00,
2013-02-19 00:26:00,70.4,-99.9,30.05,East,80,0.0,5.0,0,0.00,,,0.00,0,weatherlink.com 1.10,2013-02-19 04:26:00,
2013-02-19 00:41:00,70.4,-99.9,30.05,ESE,104,2.0,5.0,0,0.00,,,0.00,0,weatherlink.com 1.10,2013-02-19 04:41:00,
2013-02-19 00:56:00,70.2,-99.9,30.05,ENE,78,2.0,4.0,0,0.00,,,0.00,0,weatherlink.com 1.10,2013-02-19 04:56:00,
2013-02-19 01:12:00,69.9,-99.9,30.04,East,95,0.0,3.0,0,0.00,,,0.00,0,weatherlink.com 1.10,2013-02-19 05:12:00,
2013-02-19 01:27:00,70.1,-99.9,30.04,East,95,0.0,2.0,0,0.00,,,0.00,0,weatherlink.com 1.10,2013-02-19 05:27:00,
2013-02-19 01:42:00,70.0,-99.9,30.03,East,95,0.0,2.0,0,0.00,,,0.00,0,weatherlink.com 1.10,2013-02-19 05:42:00,
2013-02-19 01:57:00,69.9,-99.9,30.03,East,95,0.0,0.0,0,0.00,,,0.00,0,weatherlink.com 1.10,2013-02-19 05:57:00,
2013-02-19 02:12:00,69.9,-99.9,30.02,East,95,0.0,0.0,0,0.00,,,0.00,0,weatherlink.com 1.10,2013-02-19 06:12:00,
2013-02-19 02:27:00,69.1,-99.9,30.02,East,95,0.0,2.0,0,0.00,,,0.00,0,weatherlink.com 1.10,2013-02-19 06:27:00,
2013-02-19 02:42:00,68.9,-99.9,30.02,East,95,0.0,1.0,0,0.00,,,0.00,0,weatherlink.com 1.10,2013-02-19 06:42:00,
2013-02-19 02:57:00,69.0,-99.9,30.02,East,95,0.0,0.0,0,0.00,,,0.00,0,weatherlink.com 1.10,2013-02-19 06:57:00,
2013-02-19 03:12:00,69.0,-99.9,30.02,East,95,0.0,3.0,0,0.00,,,0.00,0,weatherlink.com 1.10,2013-02-19 07:12:00,
2013-02-19 03:27:00,69.1,-99.9,30.01,East,95,0.0,2.0,0,0.00,,,0.00,0,weatherlink.com 1.10,2013-02-19 07:27:00,
2013-02-19 03:42:00,69.0,-99.9,30.01,East,95,0.0,0.0,0,0.00,,,0.00,0,weatherlink.com 1.10,2013-02-19 07:42:00,
2013-02-19 04:12:00,68.6,-99.9,30.01,East,95,0.0,1.0,0,0.00,,,0.00,0,weatherlink.com 1.10,2013-02-19 08:12:00,
2013-02-19 04:28:00,68.7,-99.9,30.01,East,88,1.0,5.0,0,0.00,,,0.00,0,weatherlink.com 1.10,2013-02-19 08:28:00,
2013-02-19 04:43:00,69.0,-99.9,30.01,East,94,1.0,4.0,0,0.00,,,0.00,0,weatherlink.com 1.10,2013-02-19 08:43:00,
2013-02-19 04:58:00,68.8,-99.9,30.01,East,94,0.0,3.0,0,0.00,,,0.00,0,weatherlink.com 1.10,2013-02-19 08:58:00,
2013-02-19 05:13:00,68.8,-99.9,30.01,East,94,0.0,1.0,0,0.00,,,0.00,0,weatherlink.com 1.10,2013-02-19 09:13:00,
2013-02-19 05:28:00,68.6,-99.9,30.02,East,94,0.0,1.0,0,0.00,,,0.00,0,weatherlink.com 1.10,2013-02-19 09:28:00,
2013-02-19 05:43:00,68.7,-99.9,30.02,East,94,1.0,5.0,0,0.00,,,0.00,0,weatherlink.com 1.10,2013-02-19 09:43:00,
2013-02-19 05:58:00,68.6,-99.9,30.02,East,94,0.0,3.0,0,0.00,,,0.00,0,weatherlink.com 1.10,2013-02-19 09:58:00,
2013-02-19 06:13:00,68.6,-99.9,30.02,ESE,102,1.0,2.0,0,0.00,,,0.00,0,weatherlink.com 1.10,2013-02-19 10:13:00,
2013-02-19 06:28:00,68.2,-99.9,30.03,ENE,74,0.0,4.0,0,0.00,,,0.00,0,weatherlink.com 1.10,2013-02-19 10:28:00,
2013-02-19 06:43:00,68.3,-99.9,30.04,East,80,0.0,4.0,0,0.00,,,0.00,0,weatherlink.com 1.10,2013-02-19 10:43:00,
2013-02-19 06:59:00,68.1,-99.9,30.04,East,80,0.0,2.0,0,0.00,,,0.00,11,weatherlink.com 1.10,2013-02-19 10:59:00,
2013-02-19 07:13:00,68.5,-99.9,30.05,East,80,0.0,2.0,0,0.00,,,0.00,35,weatherlink.com 1.10,2013-02-19 11:13:00,
2013-02-19 07:28:00,69.2,-99.9,30.05,SSW,205,0.0,1.0,0,0.00,,,0.00,72,weatherlink.com 1.10,2013-02-19 11:28:00,
2013-02-19 07:43:00,68.5,-99.9,30.06,SSW,205,0.0,2.0,0,0.00,,,0.00,125,weatherlink.com 1.10,2013-02-19 11:43:00,
2013-02-19 07:59:00,68.8,-99.9,30.06,SSW,205,0.0,1.0,0,0.00,,,0.00,192,weatherlink.com 1.10,2013-02-19 11:59:00,
2013-02-19 08:14:00,68.9,-99.9,30.07,SSW,205,0.0,2.0,0,0.00,,,0.00,130,weatherlink.com 1.10,2013-02-19 12:14:00,
2013-02-19 08:29:00,69.4,-99.9,30.07,SSW,205,0.0,2.0,0,0.00,,,0.00,149,weatherlink.com 1.10,2013-02-19 12:29:00,
2013-02-19 08:44:00,70.1,-99.9,30.07,SSW,205,0.0,1.0,0,0.00,,,0.00,200,weatherlink.com 1.10,2013-02-19 12:44:00,
2013-02-19 08:59:00,71.2,-99.9,30.07,West,261,2.0,3.0,0,0.00,,,0.00,436,weatherlink.com 1.10,2013-02-19 12:59:00,
2013-02-19 09:14:00,72.2,-99.9,30.07,NNE,22,1.0,5.0,0,0.00,,,0.00,497,weatherlink.com 1.10,2013-02-19 13:14:00,
2013-02-19 09:29:00,73.7,-99.9,30.07,East,90,0.0,4.0,0,0.00,,,0.00,295,weatherlink.com 1.10,2013-02-19 13:29:00,
2013-02-19 09:44:00,74.0,-99.9,30.08,ENE,61,0.0,8.0,0,0.00,,,0.00,185,weatherlink.com 1.10,2013-02-19 13:44:00,
2013-02-19 09:59:00,75.0,-99.9,30.08,NE,55,2.0,5.0,0,0.00,,,0.00,731,weatherlink.com 1.10,2013-02-19 13:59:00,
2013-02-19 10:14:00,77.9,-3.0,30.08,NNE,29,2.0,15.0,4,0.00,,,0.00,223,weatherlink.com 1.10,2013-02-19 14:14:00,
2013-02-19 10:30:00,76.8,-99.9,30.08,NE,40,5.0,10.0,0,0.00,,,0.00,199,weatherlink.com 1.10,2013-02-19 14:30:00,
2013-02-19 10:45:00,75.1,-99.9,30.08,East,101,2.0,9.0,0,0.00,,,0.00,227,weatherlink.com 1.10,2013-02-19 14:45:00,
2013-02-19 10:59:00,69.5,-99.9,30.09,SE,136,1.0,11.0,0,0.03,,,0.03,295,weatherlink.com 1.10,2013-02-19 14:59:00,
2013-02-19 11:14:00,70.7,-99.9,30.09,SE,127,1.0,4.0,0,0.03,,,0.03,380,weatherlink.com 1.10,2013-02-19 15:14:00,
2013-02-19 11:30:00,70.6,-99.9,30.09,East,86,1.0,11.0,0,0.03,,,0.03,388,weatherlink.com 1.10,2013-02-19 15:30:00,
2013-02-19 11:45:00,71.1,-99.9,30.08,ENE,69,4.0,10.0,0,0.03,,,0.03,452,weatherlink.com 1.10,2013-02-19 15:45:00,
2013-02-19 12:00:00,72.3,-99.9,30.07,ENE,72,1.0,5.0,0,0.00,,,0.03,313,weatherlink.com 1.10,2013-02-19 16:00:00,
2013-02-19 12:15:00,73.3,-99.9,30.07,ENE,72,0.0,2.0,0,0.00,,,0.03,424,weatherlink.com 1.10,2013-02-19 16:15:00,
2013-02-19 12:30:00,75.2,-99.9,30.06,ESE,103,2.0,4.0,0,0.00,,,0.03,471,weatherlink.com 1.10,2013-02-19 16:30:00,
2013-02-19 12:45:00,76.6,-99.9,30.05,ENE,78,3.0,12.0,0,0.00,,,0.03,388,weatherlink.com 1.10,2013-02-19 16:45:00,
2013-02-19 13:00:00,77.6,5.0,30.04,NE,36,2.0,13.0,6,0.00,,,0.03,605,weatherlink.com 1.10,2013-02-19 17:00:00,
2013-02-19 13:15:00,78.0,38.0,30.03,ENE,72,1.0,11.0,24,0.00,,,0.03,561,weatherlink.com 1.10,2013-02-19 17:15:00,
2013-02-19 13:30:00,79.6,34.0,30.03,NE,51,3.0,10.0,19,0.00,,,0.03,596,weatherlink.com 1.10,2013-02-19 17:30:00,
2013-02-19 13:46:00,79.9,23.0,30.02,South,190,3.0,12.0,12,0.00,,,0.03,490,weatherlink.com 1.10,2013-02-19 17:46:00,
2013-02-19 14:00:00,80.5,50.0,30.01,East,100,6.0,14.0,35,0.00,,,0.03,993,weatherlink.com 1.10,2013-02-19 18:00:00,
2013-02-19 14:15:00,82.7,54.0,30.01,NNE,30,0.0,9.0,37,0.00,,,0.03,1007,weatherlink.com 1.10,2013-02-19 18:15:00,
2013-02-19 14:30:00,82.7,60.0,30.01,South,180,1.0,14.0,47,0.00,,,0.03,918,weatherlink.com 1.10,2013-02-19 18:30:00,
2013-02-19 15:04:00,81.9,61.0,29.99,ESE,110,5.0,11.0,50,0.00,,,0.03,847,weatherlink.com 1.10,2013-02-19 19:04:00,
2013-02-19 15:16:00,81.9,61.0,29.99,SE,127,1.0,11.0,50,0.00,,,0.03,714,weatherlink.com 1.10,2013-02-19 19:16:00,
2013-02-19 15:31:00,82.3,62.0,29.98,SE,129,1.0,7.0,50,0.00,,,0.03,793,weatherlink.com 1.10,2013-02-19 19:31:00,
2013-02-19 15:46:00,80.1,59.0,29.98,ESE,115,5.0,12.0,48,0.00,,,0.03,142,weatherlink.com 1.10,2013-02-19 19:46:00,
2013-02-19 16:01:00,78.4,24.0,29.98,ENE,67,4.0,11.0,13,0.00,,,0.03,538,weatherlink.com 1.10,2013-02-19 20:01:00,
2013-02-19 16:16:00,80.0,34.0,29.98,NE,46,4.0,14.0,19,0.00,,,0.03,510,weatherlink.com 1.10,2013-02-19 20:16:00,
2013-02-19 16:31:00,80.2,46.0,29.98,East,88,9.0,12.0,30,0.00,,,0.03,197,weatherlink.com 1.10,2013-02-19 20:31:00,
2013-02-19 16:46:00,79.2,44.0,29.99,East,90,5.0,15.0,29,0.00,,,0.03,373,weatherlink.com 1.10,2013-02-19 20:46:00,
2013-02-19 17:01:00,79.1,37.0,29.99,ESE,119,1.0,10.0,22,0.00,,,0.03,330,weatherlink.com 1.10,2013-02-19 21:01:00,
2013-02-19 17:16:00,78.3,38.0,29.99,SE,132,0.0,8.0,23,0.00,,,0.03,234,weatherlink.com 1.10,2013-02-19 21:16:00,
2013-02-19 17:31:00,78.0,27.0,29.99,ESE,103,7.0,8.0,15,0.00,,,0.03,165,weatherlink.com 1.10,2013-02-19 21:31:00,
2013-02-19 17:46:00,77.3,1.0,30.00,SE,131,1.0,6.0,5,0.00,,,0.03,121,weatherlink.com 1.10,2013-02-19 21:46:00,
2013-02-19 18:01:00,76.5,-99.9,30.00,SE,132,2.0,10.0,0,0.00,,,0.03,74,weatherlink.com 1.10,2013-02-19 22:01:00,
2013-02-19 18:17:00,75.4,-99.9,30.00,ESE,121,1.0,6.0,0,0.00,,,0.03,18,weatherlink.com 1.10,2013-02-19 22:17:00,
2013-02-19 18:32:00,74.2,-99.9,30.01,SE,130,2.0,5.0,0,0.00,,,0.03,0,weatherlink.com 1.10,2013-02-19 22:32:00,
2013-02-19 18:47:00,73.1,-99.9,30.01,ESE,103,0.0,6.0,0,0.00,,,0.03,0,weatherlink.com 1.10,2013-02-19 22:47:00,
2013-02-19 19:02:00,72.1,-99.9,30.01,ESE,104,0.0,8.0,0,0.00,,,0.03,0,weatherlink.com 1.10,2013-02-19 23:02:00,
2013-02-19 19:32:00,70.3,-99.9,30.02,SSE,162,0.0,2.0,0,0.00,,,0.03,0,weatherlink.com 1.10,2013-02-19 23:32:00,
2013-02-19 19:47:00,70.0,-99.9,30.02,SSE,162,0.0,1.0,0,0.00,,,0.03,0,weatherlink.com 1.10,2013-02-19 23:47:00,
2013-02-19 20:02:00,70.0,-99.9,30.02,SSE,162,1.0,2.0,0,0.00,,,0.03,0,weatherlink.com 1.10,2013-02-20 00:02:00,
2013-02-19 20:17:00,70.1,-99.9,30.03,SSE,162,0.0,1.0,0,0.00,,,0.03,0,weatherlink.com 1.10,2013-02-20 00:17:00,
2013-02-19 20:33:00,70.0,-99.9,30.03,SSE,162,0.0,2.0,0,0.00,,,0.03,0,weatherlink.com 1.10,2013-02-20 00:33:00,
2013-02-19 20:47:00,69.8,-99.9,30.04,SSE,162,0.0,1.0,0,0.00,,,0.03,0,weatherlink.com 1.10,2013-02-20 00:47:00,
2013-02-19 21:03:00,69.8,-99.9,30.04,SSE,162,0.0,1.0,0,0.00,,,0.03,0,weatherlink.com 1.10,2013-02-20 01:03:00,
2013-02-19 21:18:00,69.6,-99.9,30.04,SSE,162,0.0,1.0,0,0.00,,,0.03,0,weatherlink.com 1.10,2013-02-20 01:18:00,
2013-02-19 21:33:00,69.8,-99.9,30.05,SSE,162,0.0,1.0,0,0.00,,,0.03,0,weatherlink.com 1.10,2013-02-20 01:33:00,
2013-02-19 21:48:00,69.9,-99.9,30.05,SSE,162,0.0,2.0,0,0.00,,,0.03,0,weatherlink.com 1.10,2013-02-20 01:48:00,
2013-02-19 22:03:00,69.6,-99.9,30.05,SSE,162,0.0,2.0,0,0.00,,,0.03,0,weatherlink.com 1.10,2013-02-20 02:03:00,
2013-02-19 22:18:00,69.9,-99.9,30.05,SSE,162,0.0,2.0,0,0.00,,,0.03,0,weatherlink.com 1.10,2013-02-20 02:18:00,
2013-02-19 22:33:00,70.0,-99.9,30.05,SSE,162,0.0,2.0,0,0.00,,,0.03,0,weatherlink.com 1.10,2013-02-20 02:33:00,
2013-02-19 22:48:00,69.9,-99.9,30.05,SSE,162,0.0,2.0,0,0.00,,,0.03,0,weatherlink.com 1.10,2013-02-20 02:48:00,
2013-02-19 23:03:00,69.7,-99.9,30.05,SSE,162,0.0,3.0,0,0.00,,,0.03,0,weatherlink.com 1.10,2013-02-20 03:03:00,
2013-02-19 23:18:00,69.4,-99.9,30.05,West,278,0.0,2.0,0,0.00,,,0.03,0,weatherlink.com 1.10,2013-02-20 03:18:00,
2013-02-19 23:33:00,69.1,-99.9,30.05,West,278,0.0,2.0,0,0.00,,,0.03,0,weatherlink.com 1.10,2013-02-20 03:33:00,
2013-02-19 23:48:00,68.9,-99.9,30.04,West,278,0.0,3.0,0,0.00,,,0.03,0,weatherlink.com 1.10,2013-02-20 03:48:00,